COSMOS 2251 DEB, 35065

Orbit data source: Space-Track

COSMOS 2251 DEB, 35065 is space debris in LEO originally from a launch on Wed, 16 Jun 1993 UTC launched from the Plesetsk Missile And Space Complex (PKMTR). The debris from Iridium 33, an American commercial communications satellite, has been tracked extensively since its accidental collision with the defunct Russian satellite Cosmos 2251 in 2009. This event, occurring at high speed in low Earth orbit (LEO), generated thousands of pieces of space debris, significantly increasing the risk of further collisions. The Iridium 33 debris cloud has impacted space traffic management and orbital debris mitigation strategies, making it a subject of ongoing study in space situational awareness.

Loading next visibility...
Identifier
35065, 1993-036AHU
Orbit
LEO
Country
Flag of CISCIS
Related business
Manufacturer
Unknown
Mission
Spacecraft
Bus & Motor
Unknown
Mass
Unknown
Launch date (UTC)
1993-06-16 (33 years ago)
Launch vehicle
Unknown
Launch site
Plesetsk Missile And Space Complex (PKMTR)
Object type
Payload
Rocket body
Debris
Shape & HBR
Unknown shape, 0.1 m
Radar Cross Section
Small (<0.1 m²)

Expand to show TLE details & history
Last TLE update: 2 days ago

TLE from 2 days ago
0 COSMOS 2251 DEB
1 35065U 93036AHU 26143.57448842  .00000725  00000-0  20955-3 0  9996
2 35065  74.0195 252.0847 0020019 339.1123  20.9215 14.46234499706906
Epoch: 2026-05-23T13:47Z
TLE epoch observation values (Epoch: 2026-05-23T13:47:15.799Z)
Latitude
-0.00002°
Longitude
164.07984°
Altitude
727.291 km
Speed
7.499 km/s
True Right ascension
16h 48m 20s
True Declination
0° 00' 00"
Sunlit
Object was in full shadow at epoch
Visualization orbit readout
Latitude
Unknown
Longitude
Unknown
Altitude
Unknown
Speed
Unknown
Apparent Right ascension
Unknown
Apparent Declination
Unknown
Sunlit
N/A
Visualization observer readout
Local Sidereal Time
21:47:30
Azimuth
Unknown
Elevation
Unknown
Doppler factor
Unknown
Orbital elements
Apogee altitude
749.829 km
Perigee altitude
721.347 km
Semi-major axis
7,113.725 km
Eccentricity
0.002
Inclination
74.0195°
RAAN
252.0847°
Arg. of periapsis
339.1123°
True anomaly
21.00361°
Mean anomaly
20.9215°
Eccentric anomaly
20.96253°
Mean motion
3.61741 °/min
Orbital period
99.52 mins
BSTAR
0.00020955
Loading maneuver chart data...
Computing Atmospheric mass density...
Loading historical data...
Loading historical data...
Loading historical data...
Loading historical data...
Loading historical data...
Loading historical data...
Loading historical data...

Documentation

Showing up to 5 results
|